COSMOS 2251 DEB

Satellite information

Favourite Embed

Satellite Type and Status

DEBRISIN ORBIT

Key statistics

Satellite COSMOS 2251 DEB at a glance.

Uptime

11649

Days in orbit

Revolutions

≈ 14.5

Per day

Orbit

LEO

Low Earth Orbit

Inclination

74.0

Latest

Satellite identification and parameters

Extended collection of information and parameters for COSMOS 2251 DEB.

Object identification

Identified? True

Debris? True

Object name: COSMOS 2251 DEB

International designator: 1993-036ABP

Object number (NORAD): 34845

Object ID (CCSDS): 34845

Country: COMMONWEALTH OF INDEPENDENT STATES (CIS)

Current information (Y/N): Y

RCS size: SMALL

Orbital parameters

Period: 99.628 minutes

Inclination: 74.0268 deg

SMA: 7118.938 km

Apoapsis: 755.785 km

Periapsis: 725.82 km

RAAN: 204.0846 deg

Eccentricy: 0.0021046

Argument of periapsis: 58.2231 deg

Mean anomaly: 302.0973 deg

Mean motion: 14.45373083 rev/day

Mean motion (dot): 0.00001293 rev/day2

B* drag term: 0.00037434 1/REarth

Two-line elements (TLE)

Creation date: May 4, 2025, 6:56 a.m.

Reference frame: TEME

Reference center: EARTH

Epoch: May 3, 2025, 9:41 p.m. UTC

TLE line 0: 0 COSMOS 2251 DEB

TLE line 1: 1 34845U 93036ABP 25123.90377931 .00001293 00000-0 37434-3 0 9996

TLE line 2: 2 34845 74.0268 204.0846 0021046 58.2231 302.0973 14.45373083847686

Live tracking on map

Real-time ground track for satellite COSMOS 2251 DEB.

In-orbit conjunctions

A list of the most updated potential collisions computed for object COSMOS 2251 DEB.

Target Orbit TCA Probability of collision Miss distance Type
COSMOS 972 LEO 2025-01-26 18:28:30 0.0003798785 775.0 (m) PAYLOAD
COSMOS 2251 DEB LEO 2024-06-28 17:37:23 0.0001015467 583.0 (m) DEBRIS

Associated space launch

Military communications satellite. Destroyed in a collision with Iridium 33.

COSMOS 2251 DEB was lifted into orbit during the mission ‘Kosmos-3M | Strela-2M 51’, on board a Kosmos-3M space rocket.

The launch took place on June 16, 1993, 4:17 a.m. from 132/1 (132L).

For more information about the launch, click the button.

Launch to space Kosmos-3M | Strela-2M 51
Kosmos-3M | Strela-2M 51

Agency: N/A

Status: Launch Successful

Launch date: June 16, 1993, 4:17 a.m. UTC

Rocket: Kosmos-3M

Launch pad: 132/1 (132L)

Location: Plesetsk Cosmodrome, Russian Federation

...

Latest news about this satellite

There are no fresh news available about this satellite. Check back as we update our databases every day.


Newsletter sign-up

Weekly statistics, charts and insights to help you stay on top of the space industry.